Flag for Germany Weather past 2 weeks in Kempen, North Rhine-Westphalia, Germany

Now
64 °F

Clear.


Feels Like: 64 °F
Forecast: 54 / 71 °F
Wind: 6 mph from Southeast

Location: Monchengladbach Airport

Current Time: May 4, 2015 at 11:16:04 PM

Latest Report: May 4, 2015 at 8:20 PM


Visibility: 10 mi

Pressure: 29.65 "Hg

Humidity: 73%

Dew point: 55 °F

Location of KempenLocation

Historic Weather in Kempen — Graph

°F

Kempen temperature yesterday

Maximum temperature yesterday: 63 °F (at 12:50 PM)
Minimum temperature yesterday: 54 °F (at 7:50 AM)
Average temperature yesterday: 60 °F

Past Weeks' High & Low Weather Summary

 TemperatureHumidityPressure
High72 °F (Apr 24, 4:50 PM)100% (Apr 22, 8:20 AM)30.45 "Hg (Apr 22, 8:20 AM)
Low37 °F (Apr 28, 7:50 AM)26% (Apr 21, 5:20 PM)29.56 "Hg (May 3, 6:20 PM)
Average56 °F64%29.95 "Hg
* Reported Apr 19 8:20 PM — May 4 8:20 PM, Kempen, Weather by CustomWeather, © 2015

Note: Actual official high and low records may vary slightly from our data, if they occured in-between our weather recording intervals... More about our weather records

Advertising

Kempen weather history for previous 24 hours

 ConditionsComfort  
Time TempWeatherWind HumidityBarometerVisibility
8:20 PM
Mon, May 4
64 °FClear.6 mph73%29.65 "Hg10 mi
7:50 PM66 °FClear.5 mph68%29.68 "Hg10 mi
7:20 PM68 °FClear.5 mph60%29.68 "Hg10 mi
6:50 PM68 °FClear.5 mph60%29.71 "Hg10 mi
6:20 PM68 °FPassing clouds.6 mph53%29.71 "HgN/A
5:50 PM68 °FPassing clouds.6 mph56%29.74 "HgN/A
5:20 PM70 °FPassing clouds.5 mph53%29.74 "HgN/A
4:50 PM68 °FPassing clouds.7 mph56%29.77 "HgN/A
4:20 PM68 °FPassing clouds.3 mph53%29.77 "HgN/A
3:50 PM66 °FPassing clouds.6 mph56%29.77 "HgN/A
3:20 PM68 °FPassing clouds.7 mph53%29.77 "HgN/A
2:50 PM68 °FPassing clouds.7 mph56%29.80 "HgN/A
2:20 PM66 °FPassing clouds.7 mph56%29.80 "HgN/A
1:50 PM64 °FPassing clouds.7 mph64%29.80 "HgN/A
1:20 PM64 °FPassing clouds.6 mph68%29.80 "HgN/A
12:50 PM64 °FPartly sunny.9 mph68%29.80 "HgN/A
12:20 PM63 °FBroken clouds.7 mph73%29.80 "HgN/A
11:50 AM61 °FBroken clouds.9 mph77%29.80 "HgN/A
11:20 AM61 °FBroken clouds.6 mph77%29.80 "HgN/A
10:50 AM59 °FPartly sunny.9 mph82%29.80 "HgN/A
10:20 AM61 °FPartly sunny.9 mph77%29.80 "HgN/A
9:50 AM59 °FPartly sunny.8 mph82%29.77 "HgN/A
9:20 AM59 °FPassing clouds.9 mph82%29.77 "HgN/A
8:50 AM59 °FPassing clouds.9 mph82%29.77 "HgN/A
8:20 AM57 °FPassing clouds.10 mph88%29.77 "HgN/A
7:50 AM59 °FPassing clouds.7 mph88%29.74 "HgN/A
Weather by CustomWeather, © 2015

See weather overviewHow to use our weather pages